• In Uzbekistan
  • List of Countries
  • For 7 days
  • Water Temperature
  • Satellite Maps
  • Weather Map
  • Weather Widgets
  • user-avatar
    Login

    Hourly Weather Usug

    Today, 20 August, Monday

    Time Temperature Precipitation Wind Pressure Humidity
    00:00 +10°C° 0 mm 1 mps 608 mmHg 90%
    01:00 +10°C° 0 mm 1 mps 608 mmHg 89%
    02:00 +10°C° 0 mm 1 mps 608 mmHg 89%
    03:00 +9°C° 0 mm 1 mps 608 mmHg 90%
    04:00 +10°C° 0 mm 1 mps 608 mmHg 89%
    05:00 +10°C° 0 mm 1 mps 609 mmHg 87%
    06:00 +10°C° 0 mm 1 mps 609 mmHg 86%
    07:00 +12°C° 0 mm 1 mps 610 mmHg 80%
    08:00 +13°C° 0 mm 1 mps 611 mmHg 73%
    09:00 +14°C° 0 mm 2 mps 611 mmHg 67%
    10:00 +15°C° 0 mm 2 mps 612 mmHg 65%
    11:00 +15°C° 0 mm 2 mps 612 mmHg 62%
    12:00 +16°C° 0 mm 2 mps 612 mmHg 60%
    13:00 +16°C° 0 mm 2 mps 612 mmHg 59%
    14:00 +16°C° 0 mm 2 mps 612 mmHg 58%
    15:00 +17°C° 0 mm 2 mps 612 mmHg 58%
    16:00 +16°C° 0 mm 2 mps 612 mmHg 61%
    17:00 +15°C° 0 mm 2 mps 611 mmHg 65%
    18:00 +14°C° 0 mm 2 mps 611 mmHg 68%
    19:00 +13°C° 0 mm 2 mps 610 mmHg 72%
    20:00 +12°C° 0 mm 1 mps 610 mmHg 75%
    21:00 +11°C° 0 mm 1 mps 610 mmHg 78%
    22:00 +10°C° 0 mm 1 mps 609 mmHg 78%
    23:00 +10°C° 0 mm 1 mps 609 mmHg 78%

    Tomorrow, 21 August, Tuesday

    Time Temperature Precipitation Wind Pressure Humidity
    00:00 +9°C° 0 mm 2 mps 609 mmHg 78%
    01:00 +9°C° 0 mm 2 mps 609 mmHg 77%
    02:00 +9°C° 0 mm 2 mps 609 mmHg 76%
    03:00 +9°C° 0 mm 2 mps 608 mmHg 75%
    04:00 +9°C° 0 mm 2 mps 609 mmHg 74%
    05:00 +9°C° 0 mm 2 mps 609 mmHg 72%
    06:00 +10°C° 0 mm 2 mps 609 mmHg 70%
    07:00 +13°C° 0 mm 2 mps 610 mmHg 64%
    08:00 +15°C° 0 mm 2 mps 610 mmHg 57%
    09:00 +16°C° 0 mm 2 mps 611 mmHg 51%
    10:00 +17°C° 0 mm 2 mps 611 mmHg 50%
    11:00 +18°C° 0 mm 3 mps 612 mmHg 48%
    12:00 +19°C° 0 mm 3 mps 612 mmHg 47%
    13:00 +19°C° 0.1 mm 3 mps 612 mmHg 48%
    14:00 +19°C° 0.1 mm 3 mps 611 mmHg 50%
    15:00 +19°C° 0.1 mm 3 mps 611 mmHg 51%
    16:00 +18°C° 0.1 mm 2 mps 610 mmHg 56%
    17:00 +17°C° 0.1 mm 2 mps 610 mmHg 61%
    18:00 +16°C° 0.1 mm 2 mps 609 mmHg 66%
    19:00 +15°C° 0 mm 2 mps 609 mmHg 68%
    20:00 +14°C° 0 mm 2 mps 609 mmHg 70%
    21:00 +12°C° 0 mm 2 mps 609 mmHg 72%
    22:00 +12°C° 0 mm 2 mps 608 mmHg 70%
    23:00 +12°C° 0 mm 2 mps 608 mmHg 68%

    Day after tomorrow, 22 August, Wednesday

    Time Temperature Precipitation Wind Pressure Humidity
    00:00 +12°C° 0 mm 2 mps 608 mmHg 66%
    01:00 +12°C° 0 mm 2 mps 608 mmHg 64%
    02:00 +12°C° 0 mm 2 mps 608 mmHg 62%
    03:00 +12°C° 0 mm 2 mps 608 mmHg 61%
    04:00 +12°C° 0 mm 2 mps 608 mmHg 59%
    05:00 +13°C° 0 mm 1 mps 608 mmHg 58%
    06:00 +13°C° 0 mm 1 mps 608 mmHg 57%
    07:00 +15°C° 0 mm 1 mps 609 mmHg 53%
    08:00 +18°C° 0 mm 1 mps 610 mmHg 50%
    09:00 +20°C° 0 mm 1 mps 611 mmHg 46%
    10:00 +19°C° 0 mm 2 mps 611 mmHg 45%
    11:00 +20°C° 0 mm 2 mps 611 mmHg 44%
    12:00 +21°C° 0 mm 2 mps 611 mmHg 43%
    13:00 +21°C° 0.3 mm 2 mps 611 mmHg 45%
    14:00 +21°C° 0.3 mm 2 mps 611 mmHg 46%
    15:00 +21°C° 0.3 mm 2 mps 610 mmHg 47%
    16:00 +20°C° 0.2 mm 2 mps 610 mmHg 52%
    17:00 +19°C° 0.2 mm 1 mps 610 mmHg 57%
    18:00 +18°C° 0.2 mm 1 mps 609 mmHg 63%
    19:00 +16°C° 0 mm 1 mps 609 mmHg 65%
    20:00 +15°C° 0 mm 1 mps 609 mmHg 67%
    21:00 +14°C° 0 mm 1 mps 609 mmHg 69%
    22:00 +14°C° 0 mm 1 mps 609 mmHg 70%
    23:00 +13°C° 0 mm 1 mps 609 mmHg 70%

    23 August, Thursday

    Time Temperature Precipitation Wind Pressure Humidity
    00:00 +13°C° 0 mm 1 mps 609 mmHg 70%
    01:00 +13°C° 0 mm 1 mps 609 mmHg 70%
    02:00 +13°C° 0 mm 1 mps 608 mmHg 71%
    03:00 +13°C° 0 mm 1 mps 608 mmHg 71%
    04:00 +13°C° 0 mm 1 mps 609 mmHg 71%
    05:00 +13°C° 0 mm 1 mps 609 mmHg 71%
    06:00 +13°C° 0 mm 1 mps 609 mmHg 71%
    07:00 +15°C° 0 mm 1 mps 610 mmHg 65%
    08:00 +17°C° 0 mm 2 mps 611 mmHg 59%
    09:00 +19°C° 0 mm 2 mps 612 mmHg 53%
    10:00 +19°C° 0.1 mm 2 mps 612 mmHg 52%
    11:00 +20°C° 0.1 mm 2 mps 612 mmHg 51%
    12:00 +20°C° 0.1 mm 2 mps 612 mmHg 50%
    13:00 +20°C° 0.5 mm 2 mps 612 mmHg 50%
    14:00 +20°C° 0.5 mm 2 mps 611 mmHg 51%
    15:00 +20°C° 0.5 mm 2 mps 611 mmHg 51%
    16:00 +19°C° 0.1 mm 2 mps 611 mmHg 55%
    17:00 +18°C° 0.1 mm 2 mps 611 mmHg 60%
    18:00 +18°C° 0.1 mm 1 mps 611 mmHg 64%
    19:00 +16°C° 0 mm 1 mps 610 mmHg 66%
    20:00 +15°C° 0 mm 1 mps 610 mmHg 68%
    21:00 +13°C° 0 mm 1 mps 610 mmHg 71%
    22:00 +13°C° 0 mm 1 mps 610 mmHg 69%
    23:00 +13°C° 0 mm 1 mps 610 mmHg 68%

    24 August, Friday

    Time Temperature Precipitation Wind Pressure Humidity
    00:00 +13°C° 0 mm 1 mps 610 mmHg 67%
    01:00 +12°C° 0 mm 1 mps 609 mmHg 66%
    02:00 +12°C° 0 mm 1 mps 609 mmHg 66%
    03:00 +12°C° 0 mm 1 mps 609 mmHg 65%
    04:00 +12°C° 0 mm 1 mps 609 mmHg 65%
    05:00 +13°C° 0 mm 1 mps 609 mmHg 64%
    06:00 +13°C° 0 mm 1 mps 610 mmHg 63%
    07:00 +15°C° 0 mm 1 mps 610 mmHg 58%
    08:00 +17°C° 0 mm 2 mps 611 mmHg 53%
    09:00 +19°C° 0 mm 2 mps 612 mmHg 47%
    10:00 +20°C° 0 mm 2 mps 612 mmHg 47%
    11:00 +21°C° 0 mm 2 mps 612 mmHg 46%
    12:00 +21°C° 0 mm 3 mps 612 mmHg 45%
    13:00 +21°C° 0 mm 3 mps 612 mmHg 46%
    14:00 +21°C° 0 mm 3 mps 611 mmHg 47%
    15:00 +21°C° 0 mm 3 mps 611 mmHg 49%
    16:00 +20°C° 0 mm 2 mps 611 mmHg 53%
    17:00 +19°C° 0 mm 2 mps 610 mmHg 57%
    18:00 +18°C° 0 mm 1 mps 610 mmHg 61%
    19:00 +16°C° 0 mm 1 mps 609 mmHg 62%
    20:00 +15°C° 0 mm 1 mps 609 mmHg 62%
    21:00 +14°C° 0 mm 1 mps 609 mmHg 63%
    22:00 +13°C° 0 mm 2 mps 609 mmHg 60%
    23:00 +13°C° 0 mm 2 mps 608 mmHg 57%

    25 August, Saturday

    Time Temperature Precipitation Wind Pressure Humidity
    00:00 +13°C° 0 mm 2 mps 608 mmHg 54%
    01:00 +13°C° 0 mm 2 mps 608 mmHg 52%
    02:00 +13°C° 0 mm 2 mps 608 mmHg 50%
    03:00 +13°C° 0 mm 2 mps 608 mmHg 48%
    04:00 +13°C° 0 mm 2 mps 608 mmHg 49%
    05:00 +13°C° 0 mm 2 mps 608 mmHg 49%
    06:00 +13°C° 0 mm 1 mps 608 mmHg 49%
    07:00 +15°C° 0 mm 2 mps 609 mmHg 47%
    08:00 +17°C° 0 mm 2 mps 610 mmHg 44%
    09:00 +19°C° 0 mm 2 mps 611 mmHg 42%
    10:00 +20°C° 0 mm 2 mps 611 mmHg 42%
    11:00 +21°C° 0 mm 3 mps 611 mmHg 41%
    12:00 +22°C° 0 mm 3 mps 611 mmHg 41%
    13:00 +22°C° 0 mm 3 mps 610 mmHg 42%
    14:00 +21°C° 0 mm 3 mps 610 mmHg 43%
    15:00 +21°C° 0 mm 3 mps 610 mmHg 44%
    16:00 +20°C° 0 mm 2 mps 609 mmHg 48%
    17:00 +18°C° 0 mm 2 mps 609 mmHg 53%
    18:00 +18°C° 0 mm 1 mps 608 mmHg 57%
    19:00 +16°C° 0 mm 1 mps 608 mmHg 57%
    20:00 +14°C° 0 mm 1 mps 608 mmHg 57%
    21:00 +13°C° 0 mm 1 mps 607 mmHg 57%
    22:00 +13°C° 0 mm 1 mps 607 mmHg 55%
    23:00 +13°C° 0 mm 1 mps 607 mmHg 52%
    Show more